Weather History for O'Neill, NE

Change the Weather History Date:

Thursday, February 13, 2014

  Actual Average Record
Temperature  
Mean Temperature 36 °F -  
Max Temperature 48 °F 37 °F 75 °F (1997)
Min Temperature 23 °F 15 °F -12 °F (1958)
Degree Days  
Heating Degree Days 29    
Moisture  
Dew Point 24 °F    
Average Humidity 60    
Maximum Humidity 73    
Minimum Humidity 35    
Precipitation  
Precipitation 0.00 in - - ()
Sea Level Pressure  
Sea Level Pressure 29.69 in    
Wind  
Wind Speed 13 mph (NW)    
Max Wind Speed 20 mph    
Max Gust Speed 24 mph    
Visibility 10 miles    
Events      
Averages and records for this station are not official NWS values.
T = Trace of Precipitation, MM = Missing Value Source: NWS Daily Summary

Daily Weather History Graph

Daily Weather History Graph

Search for Another Location

Airport:

Trip Planner

Search our weather history database for the weather conditions in past years. The results will help you decide how hot, cold, wet, or windy it might be!

Date:

Astronomy

Feb. 13, 2014 Rise Set
Actual Time 7:34 AM CST 6:04 PM CST
Civil Twilight 7:05 AM CST 6:33 PM CST
Nautical Twilight 6:32 AM CST 7:06 PM CST
Astronomical Twilight 5:59 AM CST 7:39 PM CST
Moon 5:14 PM CST (2/13) 6:28 AM CST (2/13)
Length of Visible Light 11h 28m
Length of Day
10h 30m
Waxing Gibbous, 99% of the Moon is Illuminated
Feb 13
Waxing Gibbous
Feb 14
Full
Feb 22
Last Quarter
Mar 1
New
Mar 8
First Quarter

Hourly Weather History & Observations

Time (CST) Temp. Windchill Dew Point Humidity Pressure Visibility Wind Dir Wind Speed Gust Speed Precip Events Conditions
12:15 AM 37.0 °F 28.1 °F 25.7 °F 64% 29.62 in 10.0 mi SW 15.0 mph 19.6 mph N/A   Clear
12:35 AM 37.9 °F 27.9 °F 26.4 °F 63% 29.61 in 10.0 mi SW 19.6 mph 24.2 mph N/A   Clear
12:55 AM 39.2 °F 30.2 °F 26.6 °F 61% 29.61 in 10.0 mi SW 17.3 mph 23.0 mph N/A   Mostly Cloudy
1:15 AM 40.1 °F 31.6 °F 27.5 °F 61% 29.61 in 10.0 mi SW 16.1 mph 21.9 mph N/A   Overcast
1:35 AM 40.1 °F 32.0 °F 28.2 °F 63% 29.61 in 10.0 mi WSW 15.0 mph 23.0 mph N/A   Overcast
1:55 AM 40.1 °F 31.6 °F 28.4 °F 63% 29.62 in 10.0 mi WSW 16.1 mph - N/A   Mostly Cloudy
2:15 AM 40.1 °F 32.7 °F 28.4 °F 63% 29.63 in 10.0 mi WSW 12.7 mph 19.6 mph N/A   Scattered Clouds
2:35 AM 39.4 °F 31.8 °F 28.4 °F 65% 29.63 in 10.0 mi West 12.7 mph - N/A   Clear
2:55 AM 39.7 °F 31.9 °F 28.4 °F 64% 29.64 in 10.0 mi West 13.8 mph - N/A   Clear
3:15 AM 38.8 °F 31.6 °F 28.2 °F 66% 29.64 in 10.0 mi West 11.5 mph - N/A   Clear
3:35 AM 38.3 °F 30.5 °F 28.4 °F 68% 29.64 in 10.0 mi West 12.7 mph - N/A   Clear
3:55 AM 36.5 °F 28.2 °F 28.2 °F 72% 29.64 in 10.0 mi WSW 12.7 mph - N/A   Clear
4:15 AM 37.0 °F 29.8 °F 27.7 °F 69% 29.65 in 10.0 mi West 10.4 mph - N/A   Clear
4:35 AM 36.1 °F 28.2 °F 27.5 °F 71% 29.65 in 10.0 mi West 11.5 mph - N/A   Clear
4:55 AM 34.9 °F 26.6 °F 27.0 °F 73% 29.65 in 10.0 mi West 11.5 mph - N/A   Clear
5:15 AM 34.7 °F 26.9 °F 26.6 °F 72% 29.66 in 10.0 mi West 10.4 mph - N/A   Clear
5:35 AM 34.7 °F 26.4 °F 26.6 °F 72% 29.66 in 10.0 mi West 11.5 mph - N/A   Clear
5:55 AM 35.1 °F 27.4 °F 26.4 °F 71% 29.67 in 10.0 mi West 10.4 mph - N/A   Clear
6:15 AM 35.6 °F 28.0 °F 26.6 °F 70% 29.67 in 10.0 mi West 10.4 mph - N/A   Clear
6:35 AM 35.2 °F 26.6 °F 26.2 °F 70% 29.67 in 10.0 mi WSW 12.7 mph - N/A   Clear
6:55 AM 36.5 °F 28.2 °F 26.4 °F 67% 29.69 in 10.0 mi West 12.7 mph 19.6 mph N/A   Clear
7:15 AM 36.0 °F 27.5 °F 26.2 °F 68% 29.70 in 10.0 mi West 12.7 mph - N/A   Clear
7:35 AM 37.0 °F 28.5 °F 26.6 °F 66% 29.71 in 10.0 mi West 13.8 mph - N/A   Clear
7:55 AM 37.4 °F 29.8 °F 26.6 °F 65% 29.72 in 10.0 mi WNW 11.5 mph - N/A   Clear
8:15 AM 38.7 °F 30.9 °F 27.0 °F 63% 29.74 in 10.0 mi WNW 12.7 mph - N/A   Clear
8:35 AM 40.1 °F 33.2 °F 27.1 °F 60% 29.75 in 10.0 mi WNW 11.5 mph - N/A   Clear
8:55 AM 41.0 °F 33.9 °F 27.3 °F 58% 29.75 in 10.0 mi WNW 12.7 mph 18.4 mph N/A   Clear
9:15 AM 41.9 °F 35.4 °F 27.3 °F 56% 29.76 in 10.0 mi WNW 11.5 mph 17.3 mph N/A   Clear
9:35 AM 42.3 °F 34.8 °F 27.1 °F 55% 29.76 in 10.0 mi NW 15.0 mph 23.0 mph N/A   Clear
9:55 AM 42.8 °F 35.8 °F 27.1 °F 54% 29.77 in 10.0 mi NW 13.8 mph - N/A   Clear
10:15 AM 43.2 °F 35.6 °F 27.1 °F 53% 29.76 in 10.0 mi NW 16.1 mph - N/A   Clear
10:35 AM 43.2 °F 35.9 °F 27.0 °F 53% 29.78 in 10.0 mi NW 15.0 mph 24.2 mph N/A   Clear
10:55 AM 43.5 °F 35.8 °F 26.2 °F 51% 29.77 in 10.0 mi NW 17.3 mph 20.7 mph N/A   Clear
11:15 AM 43.9 °F 36.5 °F 26.8 °F 51% 29.77 in 10.0 mi NW 16.1 mph - N/A   Clear
11:35 AM 44.2 °F 36.7 °F 26.1 °F 49% 29.78 in 10.0 mi WNW 17.3 mph 21.9 mph N/A   Clear
11:55 AM 44.6 °F 37.4 °F 25.9 °F 48% 29.78 in 10.0 mi NW 16.1 mph 20.7 mph N/A   Clear
12:15 PM 45.0 °F 38.2 °F 25.9 °F 47% 29.77 in 10.0 mi NW 15.0 mph 19.6 mph N/A   Clear
12:35 PM 45.7 °F 39.5 °F 25.9 °F 46% 29.76 in 10.0 mi WNW 13.8 mph - N/A   Clear
12:55 PM 45.9 °F 39.4 °F 24.8 °F 44% 29.75 in 10.0 mi WNW 15.0 mph - N/A   Clear
1:35 PM 47.7 °F - 24.6 °F 41% 29.74 in 10.0 mi NW 13.8 mph - N/A   Clear
1:55 PM 47.3 °F - 22.5 °F 38% 29.74 in 10.0 mi WNW 15.0 mph 20.7 mph N/A   Clear
2:15 PM 47.7 °F - 21.2 °F 35% 29.73 in 10.0 mi NW 15.0 mph 19.6 mph N/A   Clear
2:35 PM 48.2 °F - 22.1 °F 36% 29.72 in 10.0 mi NW 12.7 mph 19.6 mph N/A   Clear
2:55 PM 48.0 °F - 21.9 °F 36% 29.72 in 10.0 mi NW 9.2 mph - N/A   Clear
3:15 PM 48.0 °F - 22.8 °F 37% 29.71 in 10.0 mi NNW 8.1 mph - N/A   Clear
3:35 PM 45.5 °F 42.5 °F 23.5 °F 42% 29.71 in 10.0 mi North 5.8 mph - N/A   Scattered Clouds
3:55 PM 46.0 °F 43.1 °F 23.7 °F 42% 29.71 in 10.0 mi North 5.8 mph - N/A   Scattered Clouds
4:15 PM 43.3 °F 41.7 °F 23.7 °F 46% 29.70 in 10.0 mi NE 3.5 mph - N/A   Scattered Clouds
4:35 PM 43.9 °F 40.5 °F 24.1 °F 46% 29.70 in 10.0 mi NNE 5.8 mph - N/A   Clear
4:55 PM 43.0 °F 39.5 °F 24.4 °F 48% 29.70 in 10.0 mi NE 5.8 mph - N/A   Scattered Clouds
5:15 PM 42.1 °F 39.2 °F 24.6 °F 50% 29.70 in 10.0 mi ENE 4.6 mph - N/A   Scattered Clouds
5:35 PM 41.0 °F 37.1 °F 24.6 °F 52% 29.69 in 10.0 mi ENE 5.8 mph - N/A   Mostly Cloudy
5:55 PM 38.8 °F 33.2 °F 23.5 °F 54% 29.69 in 10.0 mi ENE 8.1 mph - N/A   Mostly Cloudy
6:15 PM 36.7 °F 29.9 °F 23.7 °F 59% 29.69 in 10.0 mi ENE 9.2 mph - N/A   Mostly Cloudy
6:35 PM 34.9 °F 28.3 °F 23.0 °F 62% 29.69 in 10.0 mi ENE 8.1 mph - N/A   Scattered Clouds
6:55 PM 33.1 °F 25.5 °F 22.6 °F 66% 29.70 in 10.0 mi ENE 9.2 mph - N/A   Scattered Clouds
7:15 PM 32.0 °F 24.2 °F 20.7 °F 63% 29.69 in 10.0 mi ENE 9.2 mph - N/A   Clear
7:35 PM 30.6 °F 22.4 °F 20.8 °F 67% 29.67 in 10.0 mi East 9.2 mph - N/A   Clear
7:55 PM 29.1 °F 21.3 °F 20.5 °F 70% 29.67 in 10.0 mi East 8.1 mph - N/A   Clear
8:15 PM 28.0 °F 20.0 °F 20.3 °F 73% 29.67 in 10.0 mi ENE 8.1 mph - N/A   Clear
8:35 PM 28.2 °F 18.9 °F 20.1 °F 72% 29.66 in 10.0 mi ENE 10.4 mph - N/A   Scattered Clouds
8:55 PM 27.3 °F 18.4 °F 19.8 °F 73% 29.65 in 10.0 mi ENE 9.2 mph - N/A   Clear
9:15 PM 27.0 °F 18.0 °F 19.2 °F 73% 29.66 in 10.0 mi ENE 9.2 mph - N/A   Scattered Clouds
9:35 PM 26.6 °F 18.2 °F 18.5 °F 71% 29.66 in 10.0 mi NE 8.1 mph - N/A   Mostly Cloudy
9:55 PM 26.6 °F 22.6 °F 18.5 °F 71% 29.68 in 10.0 mi ENE 3.5 mph - N/A   Overcast
10:15 PM 26.6 °F - 18.3 °F 71% 29.69 in 10.0 mi Calm Calm - N/A   Overcast
10:35 PM 27.0 °F 17.3 °F 19.0 °F 72% 29.63 in 10.0 mi SE 10.4 mph - N/A   Overcast
10:55 PM 26.8 °F 16.5 °F 19.2 °F 73% 29.65 in 10.0 mi NE 11.5 mph 17.3 mph N/A   Overcast
11:15 PM 25.5 °F 16.9 °F 17.4 °F 71% 29.66 in 10.0 mi NE 8.1 mph - N/A   Mostly Cloudy
11:35 PM 24.6 °F 15.8 °F 16.7 °F 72% 29.68 in 10.0 mi NE 8.1 mph - N/A   Mostly Cloudy
11:55 PM 23.7 °F 13.3 °F 15.8 °F 72% 29.69 in 10.0 mi NE 10.4 mph - N/A   Overcast